Eau Claire, WI

3:44 AM CDT on April 25, 2017 (GMT -0500)
Chippewa Valley Regional

Weather History for KEAU - September, 2012

Change the Weather History Date:

Monday, September 3, 2012

  Actual Average Record
Temperature  
Mean Temperature 76 °F 65 °F  
Max Temperature 86 °F 76 °F 98 °F (1929)
Min Temperature 66 °F 54 °F 32 °F (1974)
Degree Days  
Heating Degree Days 0 3  
Month to date heating degree days 0 7  
Since 1 July heating degree days 25 46  
Cooling Degree Days 11 3  
Month to date cooling degree days 23 9  
Year to date cooling degree days 796 536  
Growing Degree Days 28 (Base 50)    
Moisture  
Dew Point 68 °F    
Average Humidity 75    
Maximum Humidity 90    
Minimum Humidity 59    
Precipitation  
Precipitation 0.23 in 0.12 in 1.85 in (1968)
Month to date precipitation 0.23 0.37  
Year to date precipitation 19.39 22.49  
Snow  
Snow 0.00 in 0.00 in 0.00 in ()
Month to date snowfall 0.0 0.0  
Since 1 July snowfall 0.0 0.0  
Since 1 September snowfall 0.0 0.0  
Snow Depth 0.00 in    
Sea Level Pressure  
Sea Level Pressure 29.88 in    
Wind  
Wind Speed 6 mph (SSW)    
Max Wind Speed 14 mph    
Max Gust Speed 16 mph    
Visibility 9 miles    
Events Fog , Rain , Thunderstorm    
T = Trace of Precipitation, MM = Missing Value Source: NWS Daily Summary

Daily Weather History Graph

Daily Weather History Graph

Search for Another Location

Airport or City:

Trip Planner

Search our weather history database for the weather conditions in past years. The results will help you decide how hot, cold, wet, or windy it might be!

Date:

Astronomy

Sep. 03, 2012 Rise Set
Actual Time 6:31 AM CDT 7:38 PM CDT
Civil Twilight 6:01 AM CDT 8:08 PM CDT
Nautical Twilight 5:24 AM CDT 8:44 PM CDT
Astronomical Twilight 4:46 AM CDT 9:22 PM CDT
Moon 8:45 PM CDT (9/3) 9:51 AM CDT (9/3)
Length of Visible Light 14h 07m
Length of Day
13h 07m
Waning Gibbous, 90% of the Moon is Illuminated
Sep 3
Waning Gibbous
Sep 8
Last Quarter
Sep 15
New
Sep 22
First Quarter
Sep 29
Full

Hourly Weather History & Observations

Time (CDT) Temp. Heat Index Dew Point Humidity Pressure Visibility Wind Dir Wind Speed Gust Speed Precip Events Conditions
12:56 AM 77.0 °F - 66.0 °F 69% 29.88 in 10.0 mi South 6.9 mph - N/A   Clear
1:56 AM 75.9 °F - 66.9 °F 74% 29.88 in 10.0 mi South 6.9 mph - N/A   Clear
2:56 AM 73.4 °F - 66.2 °F 78% 29.90 in 10.0 mi SSE 6.9 mph - N/A   Clear
3:56 AM 73.9 °F - 66.0 °F 76% 29.88 in 10.0 mi South 5.8 mph - N/A   Partly Cloudy
4:56 AM 73.0 °F - 66.9 °F 81% 29.88 in 10.0 mi South 8.1 mph - N/A   Partly Cloudy
5:56 AM 72.0 °F - 66.9 °F 84% 29.88 in 10.0 mi South 5.8 mph - N/A   Partly Cloudy
6:56 AM 72.0 °F - 66.9 °F 84% 29.88 in 10.0 mi South 8.1 mph - N/A   Partly Cloudy
7:56 AM 73.0 °F - 66.9 °F 81% 29.90 in 10.0 mi South 6.9 mph - N/A   Clear
8:41 AM 71.6 °F - 69.8 °F 94% 29.91 in 10.0 mi SSW 3.5 mph - 0.00 in Thunderstorm Thunderstorm
8:49 AM 71.6 °F - 69.8 °F 94% 29.90 in 1.5 mi Calm Calm - 0.07 in Rain , Thunderstorm Thunderstorms and Rain
8:56 AM 71.1 °F - 69.1 °F 93% 29.90 in 0.5 mi SSW 4.6 mph - 0.22 in Fog , Rain , Thunderstorm Heavy Thunderstorms and Rain
9:01 AM 71.6 °F - 69.8 °F 94% 29.92 in 1.0 mi SW 6.9 mph - 0.01 in Rain Light Rain
9:04 AM 71.6 °F - 69.8 °F 94% 29.92 in 3.0 mi SSW 4.6 mph - 0.01 in Rain Light Rain
9:56 AM 73.9 °F - 70.0 °F 87% 29.90 in 10.0 mi SW 4.6 mph - 0.01 in   Scattered Clouds
10:56 AM 78.1 °F - 69.1 °F 74% 29.90 in 10.0 mi SSW 4.6 mph - N/A   Partly Cloudy
11:56 AM 81.0 °F 83.8 °F 68.0 °F 65% 29.89 in 10.0 mi South 9.2 mph - N/A   Scattered Clouds
12:56 PM 84.0 °F 87.0 °F 68.0 °F 58% 29.87 in 10.0 mi South 10.4 mph - N/A   Clear
1:56 PM 84.0 °F 87.8 °F 69.1 °F 61% 29.87 in 10.0 mi South 9.2 mph - N/A   Scattered Clouds
2:56 PM 84.0 °F 87.8 °F 69.1 °F 61% 29.86 in 10.0 mi SW 6.9 mph - N/A   Mostly Cloudy
3:56 PM 82.9 °F 85.8 °F 68.0 °F 60% 29.85 in 10.0 mi WSW 3.5 mph - N/A   Partly Cloudy
4:56 PM 84.0 °F 87.0 °F 68.0 °F 58% 29.85 in 10.0 mi SSW 4.6 mph - N/A   Partly Cloudy
5:56 PM 82.9 °F 87.0 °F 70.0 °F 65% 29.84 in 10.0 mi SSW 6.9 mph - N/A   Scattered Clouds
6:56 PM 81.0 °F 84.4 °F 70.0 °F 69% 29.84 in 10.0 mi SSW 5.8 mph - N/A   Clear
7:56 PM 78.1 °F - 69.1 °F 74% 29.86 in 10.0 mi SSW 8.1 mph - N/A   Clear
8:56 PM 75.0 °F - 68.0 °F 79% 29.87 in 10.0 mi SSW 5.8 mph - N/A   Clear
9:56 PM 73.0 °F - 68.0 °F 84% 29.87 in 10.0 mi SW 3.5 mph - N/A   Clear
10:56 PM 71.1 °F - 66.9 °F 87% 29.87 in 10.0 mi Calm Calm - N/A   Clear
11:56 PM 69.1 °F - 66.9 °F 93% 29.87 in 9.0 mi Calm Calm - N/A   Clear